Year,Month,Day,Hour,Minute,Value (Times are PST for temperature in C)
2020,08,15,00,00,12.20
2020,08,15,00,01,12.20
2020,08,15,00,02,12.10
2020,08,15,00,03,12.10
2020,08,15,00,04,12.10
2020,08,15,00,05,12.10
2020,08,15,00,06,12.10
2020,08,15,00,07,12.10
2020,08,15,00,08,12.10
2020,08,15,00,09,12.10
2020,08,15,00,10,12.10
2020,08,15,00,11,12.10
2020,08,15,00,12,12.10
2020,08,15,00,13,12.00
2020,08,15,00,14,12.00
2020,08,15,00,15,12.00
2020,08,15,00,16,12.00
2020,08,15,00,17,12.00
2020,08,15,00,18,12.00
2020,08,15,00,19,12.00
2020,08,15,00,20,12.00
2020,08,15,00,21,12.00
2020,08,15,00,22,12.00
2020,08,15,00,23,12.00
2020,08,15,00,24,12.00
2020,08,15,00,25,12.00
2020,08,15,00,26,12.00
2020,08,15,00,27,12.00
2020,08,15,00,28,12.00
2020,08,15,00,29,12.00
2020,08,15,00,30,11.90
2020,08,15,00,31,11.90
2020,08,15,00,32,11.90
2020,08,15,00,33,11.90
2020,08,15,00,34,11.90
2020,08,15,00,35,11.90
2020,08,15,00,36,11.90
2020,08,15,00,37,11.80
2020,08,15,00,38,11.80
2020,08,15,00,39,11.80
2020,08,15,00,40,11.90
2020,08,15,00,41,11.90
2020,08,15,00,42,11.90
2020,08,15,00,43,11.90
2020,08,15,00,44,11.90
2020,08,15,00,45,11.90
2020,08,15,00,46,11.90
2020,08,15,00,47,11.90
2020,08,15,00,48,11.90
2020,08,15,00,49,11.80
2020,08,15,00,50,11.80
2020,08,15,00,51,11.80
2020,08,15,00,52,11.80
2020,08,15,00,53,11.80
2020,08,15,00,54,11.80
2020,08,15,00,55,11.80
2020,08,15,00,56,11.80
2020,08,15,00,57,11.80
2020,08,15,00,58,11.80
2020,08,15,00,59,11.80
2020,08,15,01,00,11.80
2020,08,15,01,01,11.80
2020,08,15,01,02,11.80
2020,08,15,01,03,11.70
2020,08,15,01,04,11.70
2020,08,15,01,05,11.70
2020,08,15,01,06,11.70
2020,08,15,01,07,11.70
2020,08,15,01,08,11.70
2020,08,15,01,09,11.60
2020,08,15,01,10,11.60
2020,08,15,01,11,11.60
2020,08,15,01,12,11.60
2020,08,15,01,13,11.60
2020,08,15,01,14,11.60
2020,08,15,01,15,11.60
2020,08,15,01,16,11.60
2020,08,15,01,17,11.70
2020,08,15,01,18,11.60
2020,08,15,01,19,11.70
2020,08,15,01,20,11.70
2020,08,15,01,21,11.60
2020,08,15,01,22,11.60
2020,08,15,01,23,11.60
2020,08,15,01,24,11.60
2020,08,15,01,25,11.60
2020,08,15,01,26,11.60
2020,08,15,01,27,11.60
2020,08,15,01,28,11.60
2020,08,15,01,29,11.60
2020,08,15,01,30,11.60
2020,08,15,01,31,11.60
2020,08,15,01,32,11.60
2020,08,15,01,33,11.60
2020,08,15,01,34,11.60
2020,08,15,01,35,11.60
2020,08,15,01,36,11.60
2020,08,15,01,37,11.60
2020,08,15,01,38,11.60
2020,08,15,01,39,11.60
2020,08,15,01,40,11.60
2020,08,15,01,41,11.50
2020,08,15,01,42,11.50
2020,08,15,01,43,11.50
2020,08,15,01,44,11.50
2020,08,15,01,45,11.50
2020,08,15,01,46,11.50
2020,08,15,01,47,11.50
2020,08,15,01,48,11.50
2020,08,15,01,49,11.50
2020,08,15,01,50,11.50
2020,08,15,01,51,11.50
2020,08,15,01,52,11.40
2020,08,15,01,53,11.40
2020,08,15,01,54,11.40
2020,08,15,01,55,11.40
2020,08,15,01,56,11.40
2020,08,15,01,57,11.50
2020,08,15,01,58,11.50
2020,08,15,01,59,11.50
2020,08,15,02,00,11.50
2020,08,15,02,01,11.50
2020,08,15,02,02,11.50
2020,08,15,02,03,11.50
2020,08,15,02,04,11.50
2020,08,15,02,05,11.50
2020,08,15,02,06,11.50
2020,08,15,02,07,11.50
2020,08,15,02,08,11.50
2020,08,15,02,09,11.40
2020,08,15,02,10,11.40
2020,08,15,02,11,11.40
2020,08,15,02,12,11.40
2020,08,15,02,13,11.40
2020,08,15,02,14,11.40
2020,08,15,02,15,11.40
2020,08,15,02,16,11.40
2020,08,15,02,17,11.40
2020,08,15,02,18,11.40
2020,08,15,02,19,11.40
2020,08,15,02,20,11.40
2020,08,15,02,21,11.40
2020,08,15,02,22,11.40
2020,08,15,02,23,11.40
2020,08,15,02,24,11.40
2020,08,15,02,25,11.40
2020,08,15,02,26,11.40
2020,08,15,02,27,11.30
2020,08,15,02,28,11.30
2020,08,15,02,29,11.30
2020,08,15,02,30,11.30
2020,08,15,02,31,11.30
2020,08,15,02,32,11.30
2020,08,15,02,33,11.30
2020,08,15,02,34,11.20
2020,08,15,02,35,11.20
2020,08,15,02,36,11.30
2020,08,15,02,37,11.30
2020,08,15,02,38,11.30
2020,08,15,02,39,11.30
2020,08,15,02,40,11.30
2020,08,15,02,41,11.30
2020,08,15,02,42,11.30
2020,08,15,02,43,11.40
2020,08,15,02,44,11.40
2020,08,15,02,45,11.40
2020,08,15,02,46,11.40
2020,08,15,02,47,11.50
2020,08,15,02,48,11.50
2020,08,15,02,49,11.50
2020,08,15,02,50,11.50
2020,08,15,02,51,11.60
2020,08,15,02,52,11.60
2020,08,15,02,53,11.60
2020,08,15,02,54,11.60
2020,08,15,02,55,11.60
2020,08,15,02,56,11.60
2020,08,15,02,57,11.60
2020,08,15,02,58,11.60
2020,08,15,02,59,11.60
2020,08,15,03,00,11.60
2020,08,15,03,01,11.60
2020,08,15,03,02,11.60
2020,08,15,03,03,11.60
2020,08,15,03,04,11.60
2020,08,15,03,05,11.60
2020,08,15,03,06,11.60
2020,08,15,03,07,11.60
2020,08,15,03,08,11.60
2020,08,15,03,09,11.50
2020,08,15,03,10,11.50
2020,08,15,03,11,11.50
2020,08,15,03,12,11.50
2020,08,15,03,13,11.50
2020,08,15,03,14,11.50
2020,08,15,03,15,11.50
2020,08,15,03,16,11.50
2020,08,15,03,17,11.40
2020,08,15,03,18,11.40
2020,08,15,03,19,11.40
2020,08,15,03,20,11.40
2020,08,15,03,21,11.40
2020,08,15,03,22,11.40
2020,08,15,03,23,11.40
2020,08,15,03,24,11.40
2020,08,15,03,25,11.40
2020,08,15,03,26,11.40
2020,08,15,03,27,11.40
2020,08,15,03,28,11.40
2020,08,15,03,29,11.40
2020,08,15,03,30,11.40
2020,08,15,03,31,11.40
2020,08,15,03,32,11.40
2020,08,15,03,33,11.40
2020,08,15,03,34,11.40
2020,08,15,03,35,11.40
2020,08,15,03,36,11.50
2020,08,15,03,37,11.50
2020,08,15,03,38,11.50
2020,08,15,03,39,11.60
2020,08,15,03,40,11.60
2020,08,15,03,41,11.70
2020,08,15,03,42,11.70
2020,08,15,03,43,11.70
2020,08,15,03,44,11.70
2020,08,15,03,45,11.80
2020,08,15,03,46,11.80
2020,08,15,03,47,11.80
2020,08,15,03,48,11.80
2020,08,15,03,49,11.80
2020,08,15,03,50,11.80
2020,08,15,03,51,11.80
2020,08,15,03,52,11.80
2020,08,15,03,53,11.80
2020,08,15,03,54,11.90
2020,08,15,03,55,11.80
2020,08,15,03,56,11.80
2020,08,15,03,57,11.90
2020,08,15,03,58,12.00
2020,08,15,03,59,12.00
2020,08,15,04,00,12.10
2020,08,15,04,01,12.10
2020,08,15,04,02,12.10
2020,08,15,04,03,12.00
2020,08,15,04,04,12.00
2020,08,15,04,05,11.90
2020,08,15,04,06,11.90
2020,08,15,04,07,11.90
2020,08,15,04,08,11.90
2020,08,15,04,09,11.80
2020,08,15,04,10,11.80
2020,08,15,04,11,11.70
2020,08,15,04,12,11.70
2020,08,15,04,13,11.80
2020,08,15,04,14,11.80
2020,08,15,04,15,11.90
2020,08,15,04,16,11.90
2020,08,15,04,17,12.00
2020,08,15,04,18,12.00
2020,08,15,04,19,12.10
2020,08,15,04,20,12.20
2020,08,15,04,21,12.20
2020,08,15,04,22,12.30
2020,08,15,04,23,12.40
2020,08,15,04,24,12.40
2020,08,15,04,25,12.40
2020,08,15,04,26,12.40
2020,08,15,04,27,12.40
2020,08,15,04,28,12.40
2020,08,15,04,29,12.30
2020,08,15,04,30,12.30
2020,08,15,04,31,12.30
2020,08,15,04,32,12.30
2020,08,15,04,33,12.20
2020,08,15,04,34,12.30
2020,08,15,04,35,12.30
2020,08,15,04,36,12.30
2020,08,15,04,37,12.30
2020,08,15,04,38,12.30
2020,08,15,04,39,12.30
2020,08,15,04,40,12.30
2020,08,15,04,41,12.40
2020,08,15,04,42,12.40
2020,08,15,04,43,12.40
2020,08,15,04,44,12.40
2020,08,15,04,45,12.40
2020,08,15,04,46,12.40
2020,08,15,04,47,12.40
2020,08,15,04,48,12.40
2020,08,15,04,49,12.30
2020,08,15,04,50,12.30
2020,08,15,04,51,12.30
2020,08,15,04,52,12.30
2020,08,15,04,53,12.30
2020,08,15,04,54,12.30
2020,08,15,04,55,12.30
2020,08,15,04,56,12.20
2020,08,15,04,57,12.20
2020,08,15,04,58,12.10
2020,08,15,04,59,12.10
2020,08,15,05,00,12.10
2020,08,15,05,01,12.10
2020,08,15,05,02,12.10
2020,08,15,05,03,12.10
2020,08,15,05,04,12.10
2020,08,15,05,05,12.10
2020,08,15,05,06,12.10
2020,08,15,05,07,12.10
2020,08,15,05,08,12.20
2020,08,15,05,09,12.20
2020,08,15,05,10,12.20
2020,08,15,05,11,12.20
2020,08,15,05,12,12.20
2020,08,15,05,13,12.20
2020,08,15,05,14,12.20
2020,08,15,05,15,12.20
2020,08,15,05,16,12.20
2020,08,15,05,17,12.20
2020,08,15,05,18,12.20
2020,08,15,05,19,12.20
2020,08,15,05,20,12.20
2020,08,15,05,21,12.20
2020,08,15,05,22,12.20
2020,08,15,05,23,12.20
2020,08,15,05,24,12.20
2020,08,15,05,25,12.20
2020,08,15,05,26,12.20
2020,08,15,05,27,12.20
2020,08,15,05,28,12.20
2020,08,15,05,29,12.30
2020,08,15,05,30,12.30
2020,08,15,05,31,12.30
2020,08,15,05,32,12.30
2020,08,15,05,33,12.30
2020,08,15,05,34,12.30
2020,08,15,05,35,12.30
2020,08,15,05,36,12.30
2020,08,15,05,37,12.30
2020,08,15,05,38,12.30
2020,08,15,05,39,12.30
2020,08,15,05,40,12.30
2020,08,15,05,41,12.30
2020,08,15,05,42,12.30
2020,08,15,05,43,12.20
2020,08,15,05,44,12.30
2020,08,15,05,45,12.20
2020,08,15,05,46,12.20
2020,08,15,05,47,12.20
2020,08,15,05,48,12.30
2020,08,15,05,49,12.30
2020,08,15,05,50,12.30
2020,08,15,05,51,12.20
2020,08,15,05,52,12.20
2020,08,15,05,53,12.20
2020,08,15,05,54,12.20
2020,08,15,05,55,12.20
2020,08,15,05,56,12.20
2020,08,15,05,57,12.20
2020,08,15,05,58,12.20
2020,08,15,05,59,12.20
2020,08,15,06,00,12.30
2020,08,15,06,01,12.30
2020,08,15,06,02,12.30
2020,08,15,06,03,12.30
2020,08,15,06,04,12.30
2020,08,15,06,05,12.40
2020,08,15,06,06,12.40
2020,08,15,06,07,12.40
2020,08,15,06,08,12.40
2020,08,15,06,09,12.40
2020,08,15,06,10,12.40
2020,08,15,06,11,12.40
2020,08,15,06,12,12.40
2020,08,15,06,13,12.40
2020,08,15,06,14,12.40
2020,08,15,06,15,12.50
2020,08,15,06,16,12.50
2020,08,15,06,17,12.60
2020,08,15,06,18,12.60
2020,08,15,06,19,12.60
2020,08,15,06,20,12.60
2020,08,15,06,21,12.70
2020,08,15,06,22,12.70
2020,08,15,06,23,12.70
2020,08,15,06,24,12.70
2020,08,15,06,25,12.70
2020,08,15,06,26,12.70
2020,08,15,06,27,12.60
2020,08,15,06,28,12.60
2020,08,15,06,29,12.60
2020,08,15,06,30,12.60
2020,08,15,06,31,12.60
2020,08,15,06,32,12.70
2020,08,15,06,33,12.70
2020,08,15,06,34,12.70
2020,08,15,06,35,12.70
2020,08,15,06,36,12.80
2020,08,15,06,37,12.80
2020,08,15,06,38,12.80
2020,08,15,06,39,12.80
2020,08,15,06,40,12.90
2020,08,15,06,41,12.90
2020,08,15,06,42,12.90
2020,08,15,06,43,12.90
2020,08,15,06,44,13.00
2020,08,15,06,45,13.00
2020,08,15,06,46,13.00
2020,08,15,06,47,13.00
2020,08,15,06,48,12.90
2020,08,15,06,49,12.90
2020,08,15,06,50,12.90
2020,08,15,06,51,12.90
2020,08,15,06,52,12.90
2020,08,15,06,53,12.90
2020,08,15,06,54,12.90
2020,08,15,06,55,12.90
2020,08,15,06,56,12.90
2020,08,15,06,57,12.90
2020,08,15,06,58,12.90
2020,08,15,06,59,12.90
2020,08,15,07,00,12.90
2020,08,15,07,01,12.90
2020,08,15,07,02,12.90
2020,08,15,07,03,13.00
2020,08,15,07,04,13.00
2020,08,15,07,05,13.00
2020,08,15,07,06,13.10
2020,08,15,07,07,13.10
2020,08,15,07,08,13.20
2020,08,15,07,09,13.20
2020,08,15,07,10,13.20
2020,08,15,07,11,13.30
2020,08,15,07,12,13.40
2020,08,15,07,13,13.40
2020,08,15,07,14,13.50
2020,08,15,07,15,13.50
2020,08,15,07,16,13.50
2020,08,15,07,17,13.60
2020,08,15,07,18,13.60
2020,08,15,07,19,13.60
2020,08,15,07,20,13.70
2020,08,15,07,21,13.70
2020,08,15,07,22,13.70
2020,08,15,07,23,13.70
2020,08,15,07,24,13.80
2020,08,15,07,25,13.80
2020,08,15,07,26,13.80
2020,08,15,07,27,13.90
2020,08,15,07,28,13.90
2020,08,15,07,29,14.00
2020,08,15,07,30,14.10
2020,08,15,07,31,14.20
2020,08,15,07,32,14.30
2020,08,15,07,33,14.30
2020,08,15,07,34,14.40
2020,08,15,07,35,14.40
2020,08,15,07,36,14.50
2020,08,15,07,37,14.60
2020,08,15,07,38,14.70
2020,08,15,07,39,14.80
2020,08,15,07,40,14.90
2020,08,15,07,41,15.00
2020,08,15,07,42,15.10
2020,08,15,07,43,15.10
2020,08,15,07,44,15.20
2020,08,15,07,45,15.30
2020,08,15,07,46,15.40
2020,08,15,07,47,15.50
2020,08,15,07,48,15.60
2020,08,15,07,49,15.70
2020,08,15,07,50,15.80
2020,08,15,07,51,15.90
2020,08,15,07,52,16.00
2020,08,15,07,53,16.10
2020,08,15,07,54,16.20
2020,08,15,07,55,16.30
2020,08,15,07,56,16.40
2020,08,15,07,57,16.50
2020,08,15,07,58,16.60
2020,08,15,07,59,16.70
2020,08,15,08,00,16.90
2020,08,15,08,01,17.00
2020,08,15,08,02,17.10
2020,08,15,08,03,17.20
2020,08,15,08,04,17.30
2020,08,15,08,05,17.40
2020,08,15,08,06,17.50
2020,08,15,08,07,17.50
2020,08,15,08,08,17.60
2020,08,15,08,09,17.70
2020,08,15,08,10,17.70
2020,08,15,08,11,17.80
2020,08,15,08,12,17.90
2020,08,15,08,13,17.90
2020,08,15,08,14,18.00
2020,08,15,08,15,18.10
2020,08,15,08,16,18.10
2020,08,15,08,17,18.10
2020,08,15,08,18,18.20
2020,08,15,08,19,18.30
2020,08,15,08,20,18.30
2020,08,15,08,21,18.40
2020,08,15,08,22,18.50
2020,08,15,08,23,18.50
2020,08,15,08,24,18.60
2020,08,15,08,25,18.70
2020,08,15,08,26,18.80
2020,08,15,08,27,18.90
2020,08,15,08,28,19.00
2020,08,15,08,29,19.00
2020,08,15,08,30,19.10
2020,08,15,08,31,19.20
2020,08,15,08,32,19.20
2020,08,15,08,33,19.20
2020,08,15,08,34,19.30
2020,08,15,08,35,19.30
2020,08,15,08,36,19.40
2020,08,15,08,37,19.50
2020,08,15,08,38,19.60
2020,08,15,08,39,19.60
2020,08,15,08,40,19.60
2020,08,15,08,41,19.60
2020,08,15,08,42,19.60
2020,08,15,08,43,19.70
2020,08,15,08,44,19.70
2020,08,15,08,45,19.70
2020,08,15,08,46,19.70
2020,08,15,08,47,19.80
2020,08,15,08,48,19.90
2020,08,15,08,49,19.90
2020,08,15,08,50,20.00
2020,08,15,08,51,20.10
2020,08,15,08,52,20.10
2020,08,15,08,53,20.10
2020,08,15,08,54,20.20
2020,08,15,08,55,20.20
2020,08,15,08,56,20.20
2020,08,15,08,57,20.20
2020,08,15,08,58,20.10
2020,08,15,08,59,20.10
2020,08,15,09,00,20.10
2020,08,15,09,01,20.20
2020,08,15,09,02,20.20
2020,08,15,09,03,20.20
2020,08,15,09,04,20.30
2020,08,15,09,05,20.40
2020,08,15,09,06,20.40
2020,08,15,09,07,20.50
2020,08,15,09,08,20.50
2020,08,15,09,09,20.60
2020,08,15,09,10,20.60
2020,08,15,09,11,20.70
2020,08,15,09,12,20.70
2020,08,15,09,13,20.80
2020,08,15,09,14,20.90
2020,08,15,09,15,20.90
2020,08,15,09,16,21.00
2020,08,15,09,17,21.10
2020,08,15,09,18,21.20
2020,08,15,09,19,21.20
2020,08,15,09,20,21.20
2020,08,15,09,21,21.20
2020,08,15,09,22,21.30
2020,08,15,09,23,21.30
2020,08,15,09,24,21.40
2020,08,15,09,25,21.40
2020,08,15,09,26,21.50
2020,08,15,09,27,21.60
2020,08,15,09,28,21.70
2020,08,15,09,29,21.80
2020,08,15,09,30,21.90
2020,08,15,09,31,21.90
2020,08,15,09,32,22.00
2020,08,15,09,33,22.00
2020,08,15,09,34,22.10
2020,08,15,09,35,22.20
2020,08,15,09,36,22.20
2020,08,15,09,37,22.20
2020,08,15,09,38,22.20
2020,08,15,09,39,22.20
2020,08,15,09,40,22.10
2020,08,15,09,41,22.10
2020,08,15,09,42,22.00
2020,08,15,09,43,22.00
2020,08,15,09,44,22.00
2020,08,15,09,45,22.00
2020,08,15,09,46,22.00
2020,08,15,09,47,22.00
2020,08,15,09,48,22.00
2020,08,15,09,49,21.90
2020,08,15,09,50,21.90
2020,08,15,09,51,21.90
2020,08,15,09,52,21.90
2020,08,15,09,53,21.90
2020,08,15,09,54,21.90
2020,08,15,09,55,22.00
2020,08,15,09,56,22.10
2020,08,15,09,57,22.10
2020,08,15,09,58,22.20
2020,08,15,09,59,22.30
2020,08,15,10,00,22.40
2020,08,15,10,01,22.40
2020,08,15,10,02,22.40
2020,08,15,10,03,22.40
2020,08,15,10,04,22.50
2020,08,15,10,05,22.50
2020,08,15,10,06,22.60
2020,08,15,10,07,22.70
2020,08,15,10,08,22.60
2020,08,15,10,09,22.60
2020,08,15,10,10,22.60
2020,08,15,10,11,22.70
2020,08,15,10,12,22.80
2020,08,15,10,13,22.80
2020,08,15,10,14,22.80
2020,08,15,10,15,22.80
2020,08,15,10,16,22.90
2020,08,15,10,17,23.00
2020,08,15,10,18,23.10
2020,08,15,10,19,23.10
2020,08,15,10,20,23.20
2020,08,15,10,21,23.30
2020,08,15,10,22,23.30
2020,08,15,10,23,23.40
2020,08,15,10,24,23.50
2020,08,15,10,25,23.50
2020,08,15,10,26,23.60
2020,08,15,10,27,23.70
2020,08,15,10,28,23.80
2020,08,15,10,29,23.90
2020,08,15,10,30,23.90
2020,08,15,10,31,23.90
2020,08,15,10,32,23.90
2020,08,15,10,33,23.90
2020,08,15,10,34,23.90
2020,08,15,10,35,23.80
2020,08,15,10,36,23.90
2020,08,15,10,37,23.90
2020,08,15,10,38,23.90
2020,08,15,10,39,24.00
2020,08,15,10,40,24.00
2020,08,15,10,41,24.10
2020,08,15,10,42,24.10
2020,08,15,10,43,24.20
2020,08,15,10,44,24.20
2020,08,15,10,45,24.20
2020,08,15,10,46,24.10
2020,08,15,10,47,24.00
2020,08,15,10,48,23.90
2020,08,15,10,49,23.80
2020,08,15,10,50,23.80
2020,08,15,10,51,23.70
2020,08,15,10,52,23.70
2020,08,15,10,53,23.70
2020,08,15,10,54,23.70
2020,08,15,10,55,23.70
2020,08,15,10,56,23.60
2020,08,15,10,57,23.50
2020,08,15,10,58,23.50
2020,08,15,10,59,23.60
2020,08,15,11,00,23.70
2020,08,15,11,01,23.70
2020,08,15,11,02,23.80
2020,08,15,11,03,23.90
2020,08,15,11,04,23.90
2020,08,15,11,05,24.00
2020,08,15,11,06,24.10
2020,08,15,11,07,24.10
2020,08,15,11,08,24.10
2020,08,15,11,09,24.10
2020,08,15,11,10,24.20
2020,08,15,11,11,24.20
2020,08,15,11,12,24.30
2020,08,15,11,13,24.40
2020,08,15,11,14,24.50
2020,08,15,11,15,24.60
2020,08,15,11,16,24.70
2020,08,15,11,17,24.80
2020,08,15,11,18,24.80
2020,08,15,11,19,24.90
2020,08,15,11,20,25.00
2020,08,15,11,21,24.90
2020,08,15,11,22,24.90
2020,08,15,11,23,24.90
2020,08,15,11,24,25.00
2020,08,15,11,25,25.00
2020,08,15,11,26,25.00
2020,08,15,11,27,25.00
2020,08,15,11,28,24.90
2020,08,15,11,29,24.80
2020,08,15,11,30,24.70
2020,08,15,11,31,24.50
2020,08,15,11,32,24.50
2020,08,15,11,33,24.40
2020,08,15,11,34,24.40
2020,08,15,11,35,24.50
2020,08,15,11,36,24.50
2020,08,15,11,37,24.60
2020,08,15,11,38,24.60
2020,08,15,11,39,24.70
2020,08,15,11,40,24.80
2020,08,15,11,41,24.90
2020,08,15,11,42,24.90
2020,08,15,11,43,24.90
2020,08,15,11,44,24.90
2020,08,15,11,45,24.90
2020,08,15,11,46,24.90
2020,08,15,11,47,24.80
2020,08,15,11,48,24.80
2020,08,15,11,49,24.80
2020,08,15,11,50,24.90
2020,08,15,11,51,25.00
2020,08,15,11,52,25.10
2020,08,15,11,53,25.30
2020,08,15,11,54,25.40
2020,08,15,11,55,25.40
2020,08,15,11,56,25.40
2020,08,15,11,57,25.40
2020,08,15,11,58,25.50
2020,08,15,11,59,25.60
2020,08,15,12,00,25.70
2020,08,15,12,01,25.70
2020,08,15,12,02,25.70
2020,08,15,12,03,25.80
2020,08,15,12,04,25.90
2020,08,15,12,05,25.90
2020,08,15,12,06,25.80
2020,08,15,12,07,25.80
2020,08,15,12,08,25.90
2020,08,15,12,09,25.90
2020,08,15,12,10,25.90
2020,08,15,12,11,26.00
2020,08,15,12,12,26.00
2020,08,15,12,13,26.00
2020,08,15,12,14,26.00
2020,08,15,12,15,25.90
2020,08,15,12,16,25.90
2020,08,15,12,17,26.00
2020,08,15,12,18,25.90
2020,08,15,12,19,25.90
2020,08,15,12,20,25.80
2020,08,15,12,21,25.70
2020,08,15,12,22,25.70
2020,08,15,12,23,25.70
2020,08,15,12,24,25.70
2020,08,15,12,25,25.70
2020,08,15,12,26,25.80
2020,08,15,12,27,25.80
2020,08,15,12,28,25.90
2020,08,15,12,29,26.00
2020,08,15,12,30,26.10
2020,08,15,12,31,26.10
2020,08,15,12,32,26.20
2020,08,15,12,33,26.20
2020,08,15,12,34,26.20
2020,08,15,12,35,26.20
2020,08,15,12,36,26.30
2020,08,15,12,37,26.40
2020,08,15,12,38,26.50
2020,08,15,12,39,26.50
2020,08,15,12,40,26.60
2020,08,15,12,41,26.70
2020,08,15,12,42,26.70
2020,08,15,12,43,26.70
2020,08,15,12,44,26.70
2020,08,15,12,45,26.70
2020,08,15,12,46,26.70
2020,08,15,12,47,26.60
2020,08,15,12,48,26.60
2020,08,15,12,49,26.60
2020,08,15,12,50,26.70
2020,08,15,12,51,26.70
2020,08,15,12,52,26.70
2020,08,15,12,53,26.80
2020,08,15,12,54,26.90
2020,08,15,12,55,26.90
2020,08,15,12,56,26.80
2020,08,15,12,57,26.80
2020,08,15,12,58,26.70
2020,08,15,12,59,26.80
2020,08,15,13,00,26.80
2020,08,15,13,01,26.80
2020,08,15,13,02,26.80
2020,08,15,13,03,26.70
2020,08,15,13,04,26.60
2020,08,15,13,05,26.50
2020,08,15,13,06,26.50
2020,08,15,13,07,26.50
2020,08,15,13,08,26.40
2020,08,15,13,09,26.40
2020,08,15,13,10,26.30
2020,08,15,13,11,26.30
2020,08,15,13,12,26.30
2020,08,15,13,13,26.40
2020,08,15,13,14,26.50
2020,08,15,13,15,26.50
2020,08,15,13,16,26.60
2020,08,15,13,17,26.70
2020,08,15,13,18,26.90
2020,08,15,13,19,27.00
2020,08,15,13,20,27.10
2020,08,15,13,21,27.20
2020,08,15,13,22,27.40
2020,08,15,13,23,27.40
2020,08,15,13,24,27.50
2020,08,15,13,25,27.50
2020,08,15,13,26,27.60
2020,08,15,13,27,27.70
2020,08,15,13,28,27.70
2020,08,15,13,29,27.80
2020,08,15,13,30,27.80
2020,08,15,13,31,27.80
2020,08,15,13,32,27.80
2020,08,15,13,33,27.60
2020,08,15,13,34,27.60
2020,08,15,13,35,27.60
2020,08,15,13,36,27.50
2020,08,15,13,37,27.30
2020,08,15,13,38,27.20
2020,08,15,13,39,27.00
2020,08,15,13,40,26.90
2020,08,15,13,41,26.80
2020,08,15,13,42,26.90
2020,08,15,13,43,26.90
2020,08,15,13,44,27.00
2020,08,15,13,45,27.00
2020,08,15,13,46,27.00
2020,08,15,13,47,26.90
2020,08,15,13,48,27.00
2020,08,15,13,49,27.00
2020,08,15,13,50,27.10
2020,08,15,13,51,27.20
2020,08,15,13,52,27.20
2020,08,15,13,53,27.20
2020,08,15,13,54,27.30
2020,08,15,13,55,27.20
2020,08,15,13,56,27.20
2020,08,15,13,57,27.20
2020,08,15,13,58,27.30
2020,08,15,13,59,27.30
2020,08,15,14,00,27.40
2020,08,15,14,01,27.50
2020,08,15,14,02,27.60
2020,08,15,14,03,27.60
2020,08,15,14,04,27.70
2020,08,15,14,05,27.70
2020,08,15,14,06,27.80
2020,08,15,14,07,27.90
2020,08,15,14,08,27.90
2020,08,15,14,09,27.90
2020,08,15,14,10,27.90
2020,08,15,14,11,27.90
2020,08,15,14,12,27.90
2020,08,15,14,13,27.90
2020,08,15,14,14,27.80
2020,08,15,14,15,27.80
2020,08,15,14,16,27.80
2020,08,15,14,17,27.90
2020,08,15,14,18,27.90
2020,08,15,14,19,27.90
2020,08,15,14,20,28.00
2020,08,15,14,21,28.10
2020,08,15,14,22,28.20
2020,08,15,14,23,28.30
2020,08,15,14,24,28.40
2020,08,15,14,25,28.40
2020,08,15,14,26,28.50
2020,08,15,14,27,28.60
2020,08,15,14,28,28.60
2020,08,15,14,30,28.60
2020,08,15,14,31,28.60
2020,08,15,14,32,28.60
2020,08,15,14,33,28.70
2020,08,15,14,34,28.70
2020,08,15,14,35,28.70
2020,08,15,14,36,28.70
2020,08,15,14,37,28.70
2020,08,15,14,38,28.50
2020,08,15,14,39,28.40
2020,08,15,14,40,28.30
2020,08,15,14,41,28.30
2020,08,15,14,42,28.30
2020,08,15,14,43,28.30
2020,08,15,14,44,28.30
2020,08,15,14,45,28.30
2020,08,15,14,46,28.30
2020,08,15,14,47,28.30
2020,08,15,14,48,28.30
2020,08,15,14,49,28.30
2020,08,15,14,50,28.20
2020,08,15,14,51,28.30
2020,08,15,14,52,28.30
2020,08,15,14,53,28.40
2020,08,15,14,54,28.60
2020,08,15,14,55,28.70
2020,08,15,14,56,28.70
2020,08,15,14,57,28.70
2020,08,15,14,58,28.70
2020,08,15,14,59,28.70
2020,08,15,15,00,28.70
2020,08,15,15,01,28.70
2020,08,15,15,02,28.70
2020,08,15,15,03,28.60
2020,08,15,15,04,28.50
2020,08,15,15,05,28.50
2020,08,15,15,06,28.50
2020,08,15,15,07,28.50
2020,08,15,15,08,28.60
2020,08,15,15,09,28.60
2020,08,15,15,10,28.60
2020,08,15,15,11,28.60
2020,08,15,15,12,28.60
2020,08,15,15,13,28.50
2020,08,15,15,14,28.40
2020,08,15,15,15,28.30
2020,08,15,15,16,28.30
2020,08,15,15,17,28.20
2020,08,15,15,18,28.20
2020,08,15,15,19,28.30
2020,08,15,15,20,28.30
2020,08,15,15,21,28.40
2020,08,15,15,22,28.40
2020,08,15,15,23,28.50
2020,08,15,15,24,28.50
2020,08,15,15,25,28.60
2020,08,15,15,26,28.70
2020,08,15,15,27,28.70
2020,08,15,15,28,28.80
2020,08,15,15,29,28.90
2020,08,15,15,30,29.10
2020,08,15,15,31,29.20
2020,08,15,15,32,29.10
2020,08,15,15,33,29.10
2020,08,15,15,34,29.00
2020,08,15,15,35,28.90
2020,08,15,15,36,28.70
2020,08,15,15,37,28.50
2020,08,15,15,38,28.30
2020,08,15,15,39,28.10
2020,08,15,15,40,28.10
2020,08,15,15,41,28.00
2020,08,15,15,42,27.90
2020,08,15,15,43,27.80
2020,08,15,15,44,27.60
2020,08,15,15,45,27.50
2020,08,15,15,46,27.30
2020,08,15,15,47,27.20
2020,08,15,15,48,27.10
2020,08,15,15,49,27.10
2020,08,15,15,50,27.10
2020,08,15,15,51,27.10
2020,08,15,15,52,27.10
2020,08,15,15,53,27.00
2020,08,15,15,54,27.00
2020,08,15,15,55,26.90
2020,08,15,15,56,26.80
2020,08,15,15,57,26.80
2020,08,15,15,58,26.80
2020,08,15,15,59,26.80
2020,08,15,16,00,26.80
2020,08,15,16,01,26.80
2020,08,15,16,02,26.80
2020,08,15,16,03,26.90
2020,08,15,16,04,26.90
2020,08,15,16,05,27.00
2020,08,15,16,06,27.10
2020,08,15,16,07,27.20
2020,08,15,16,08,27.30
2020,08,15,16,09,27.30
2020,08,15,16,10,27.30
2020,08,15,16,11,27.30
2020,08,15,16,12,27.20
2020,08,15,16,13,27.20
2020,08,15,16,14,27.20
2020,08,15,16,15,27.20
2020,08,15,16,16,27.20
2020,08,15,16,17,27.10
2020,08,15,16,18,27.10
2020,08,15,16,19,27.10
2020,08,15,16,20,27.10
2020,08,15,16,21,27.10
2020,08,15,16,22,27.10
2020,08,15,16,23,27.10
2020,08,15,16,24,27.20
2020,08,15,16,25,27.20
2020,08,15,16,26,27.30
2020,08,15,16,27,27.30
2020,08,15,16,28,27.40
2020,08,15,16,29,27.40
2020,08,15,16,30,27.40
2020,08,15,16,31,27.50
2020,08,15,16,32,27.50
2020,08,15,16,33,27.60
2020,08,15,16,34,27.60
2020,08,15,16,35,27.70
2020,08,15,16,36,27.80
2020,08,15,16,37,27.90
2020,08,15,16,38,27.90
2020,08,15,16,39,28.00
2020,08,15,16,40,28.10
2020,08,15,16,41,28.10
2020,08,15,16,42,28.20
2020,08,15,16,43,28.30
2020,08,15,16,44,28.40
2020,08,15,16,45,28.40
2020,08,15,16,46,28.40
2020,08,15,16,47,28.40
2020,08,15,16,48,28.40
2020,08,15,16,49,28.20
2020,08,15,16,50,28.10
2020,08,15,16,51,28.00
2020,08,15,16,52,27.90
2020,08,15,16,53,27.90
2020,08,15,16,54,27.90
2020,08,15,16,55,27.80
2020,08,15,16,56,27.80
2020,08,15,16,57,27.90
2020,08,15,16,58,27.90
2020,08,15,16,59,27.90
2020,08,15,17,00,28.00
2020,08,15,17,01,28.00
2020,08,15,17,02,28.10
2020,08,15,17,03,28.20
2020,08,15,17,04,28.30
2020,08,15,17,05,28.30
2020,08,15,17,06,28.30
2020,08,15,17,07,28.30
2020,08,15,17,08,28.20
2020,08,15,17,09,28.00
2020,08,15,17,10,27.90
2020,08,15,17,11,27.90
2020,08,15,17,12,27.90
2020,08,15,17,13,27.90
2020,08,15,17,14,27.80
2020,08,15,17,15,27.70
2020,08,15,17,16,27.70
2020,08,15,17,17,27.70
2020,08,15,17,18,27.70
2020,08,15,17,19,27.70
2020,08,15,17,20,27.60